STARLINK-35972 (66638 NORAD) Tracking and Keplerian Element Data

This shows tracking and keplerian element data for the satellite.

Feedback or suggestion? Click here.




ElementValue
Catalog66638
NameSTARLINK-35972
Epoch Orbit545
Epoch Day354.25003472
Epoch Year2025
RAAN151.3269
Inclination53.1592
Eccentricity0.0001303
Argument of Perigee104.8349
Mean Anonmoly131.8585
Mean Motion15.39549289
Decay Rate0.00061688
L11 66638U 25271X 25354.25003472 .00061688 00000+0 15433-2 0 9994
L22 66638 53.1592 151.3269 0001303 104.8349 131.8585 15.39549289 5459



Live tracking and technical data element details for STARLINK-35972 (NORAD 66638). STARLINK-35972 can be tracked NOW for your location showing map with azimuth and elevation plus other details from your city location.







IsCatalogInMostPopularTable: catalog: 66638, numindb: 9
Update: records affected: 1



GetName: 66638 STARLINK-35972

Hit Count: updated at: Sun, 08 Feb 2026 17:53:22 GMT